Terminal Aerodrome Forecast
Issued by NWS

Home | Current Version | Previous Version | Text Only | Print | Product List | Glossary On
Versions: 1 2 3 4 5 6 7 8 9 10 11 12 13
775
FTUS46 KHNX 081725
TAFFAT
TAF
KFAT 081725Z 0818/0918 VRB03KT 5SM HZ SKC
     FM082000 VRB03KT P6SM SKC
     FM090800 00000KT 4SM BR SKC=

USA.gov is the U.S. government's official web portal to all federal, state and local government web resources and services.